Сулюкта

Киргизия     39°56′17″N   69°34′12″E
В апреле 2022 года жителям России запретили посещать сайт meteo.paraplan.net по решению Генеральной прокуратуры. Аудитория сайта уменьшилась в 10 раз. Владельцы сайта не видят смысла в поддержке погодного сервера в таких условиях. Сайт будет закрыт в октябре.
темп.,
°C
ветер,
м/с
пор.,
м/с
влажн.,
%
обл.,
%
осадки,
мм/ч
давл.,
гПа
погр.,
м
4 октября, вт
вт400:00+12ююз22310 0.0 101911
03:00+11юз11360 0.0 101811
06:00+10ю11380 0.0 101910
09:00+16в12280 0.0 1020102
12:00+20с32210 0.0 1019830
15:00+22ссз43200 0.0 10191513
18:00+21сз44200 0.0 10201397
21:00+15юз33274 0.0 102118
5 октября, ср
ср500:00+13юз22290 0.0 102115
03:00+12юз22300 0.0 102111
06:00+10зюз22330 0.0 102211
09:00+14з22250 0.0 1023142
12:00+17сз43190 0.0 1022802
15:00+18сз43160 0.0 10211129
18:00+17зсз33180 0.0 10211032
21:00+12ююз33231 0.0 102216
6 октября, чт
чт600:00+11юз222471 0.0 102110
03:00+10ююз1124100 0.0 102110
06:00+8юв00275 0.0 102110
09:00+13св11215 0.0 1021117
12:00+18с33153 0.0 1020719
15:00+21с441365 0.0 10181214
18:00+18сз34173 0.0 1019578
21:00+14ююз33220 0.0 102117
7 октября, пт
пт700:00+12ююз22230 0.0 102011
03:00+11ю22240 0.0 102011
06:00+9юв11270 0.0 102010
09:00+16в11180 0.0 102157
12:00+21ссв33130 0.0 1019846
15:00+23с32120 0.0 10181332
18:00+22сз34140 0.0 1019195
21:00+15ююз22190 0.0 102012
8 октября, сб
сб800:00+15ююз33190 0.0 102011
03:00+14ю22205 0.0 102011
06:00+12ю22225 0.0 102011
09:00+18ююз111657 0.0 102144
12:00+22ссз2213100 0.0 1021937
15:00+22сз4312100 0.0 10201132
18:00+21зсз2314100 0.0 102091
21:00+15ююз22200 0.0 102111